sat.trackr.live / text

‹ back to catalog

2025-180C

NORAD 65261 · 2025-180C

PAYLOAD ACTIVE UNKNOWN

§ Identity

Operator
Country
TBD
Launch date
2025-08-19
Launch site
JSC
Launch vehicle
Mass (kg)
RCS (m²)

External: N2YO · Heavens-Above · Gunter

§ Orbital elements

Epoch: 2026-05-25T05:13:56.952192Z

Period
95.04 min
Inclination
97.5211°
Eccentricity
0.0014934
Mean motion
15.15221083 rev/d
Perigee alt
510.0 km
Apogee alt
530.6 km
Semi-major
6,898.4 km
B*
2.3910e-4
RAAN
272.5822°
Arg perigee
46.5715°
Mean anomaly
313.6757°
Rev number
4,218

§ Raw data

2025-180C1 65261U 25180C   26145.21802028  .00004437  00000+0  23910-3 0  99922 65261  97.5211 272.5822 0014934  46.5715 313.6757 15.15221083 42189

JSON: /api/v1/satellites/65261 · /tle

For live sub-satellite position, see the globe view (requires WebGL).

§ Visibility from observer

Set your observer location to see the next 7 days of passes ≥ 10°. The values pass through the URL so the page stays shareable.

No JS? Fill the form by hand. The geolocation button needs JavaScript.